Change the Weather History Date:

Thursday, February 6, 2014

  Actual Average Record
Temperature  
Mean Temperature 61 °F 61 °F  
Max Temperature 72 °F 72 °F 91 °F (1963)
Min Temperature 49 °F 49 °F 32 °F (1936)
Degree Days  
Heating Degree Days 4 5  
Month to date heating degree days 47 30  
Since 1 July heating degree days 354 538  
Cooling Degree Days 0 1  
Month to date cooling degree days 0 5  
Year to date cooling degree days 16 11  
Growing Degree Days 11 (Base 50)    
Moisture  
Dew Point 36 °F    
Average Humidity 41    
Maximum Humidity 59    
Minimum Humidity 22    
Precipitation  
Precipitation 0.00 in 0.02 in 0.44 in (1992)
Month to date precipitation 0.00 0.08  
Year to date precipitation T 0.45  
Sea Level Pressure  
Sea Level Pressure 29.97 in    
Wind  
Wind Speed 5 mph (SSW)    
Max Wind Speed 15 mph    
Max Gust Speed 19 mph    
Visibility 10 miles    
Events      
T = Trace of Precipitation, MM = Missing Value Source: NWS Daily Summary

Daily Weather History Graph

Daily Weather History Graph

Search for Another Location

Airport or City:

Trip Planner

Search our weather history database for the weather conditions in past years. The results will help you decide how hot, cold, wet, or windy it might be!

Date:

Astronomy

Feb. 06, 2014 Rise Set
Actual Time 7:29 AM MST 6:16 PM MST
Civil Twilight 7:03 AM MST 6:41 PM MST
Nautical Twilight 6:34 AM MST 7:10 PM MST
Astronomical Twilight 6:05 AM MST 7:39 PM MST
Moon 11:51 AM MST (2/6) 12:49 AM MST (2/6)
Length of Visible Light 11h 37m
Length of Day
10h 46m
Waxing Crescent, 50% of the Moon is Illuminated
Feb 6
Waxing Crescent
Feb 6
First Quarter
Feb 14
Full
Feb 22
Last Quarter
Mar 1
New

Hourly Weather History & Observations

Time (MST) Temp. Dew Point Humidity Pressure Visibility Wind Dir Wind Speed Gust Speed Precip Events Conditions
12:57 AM 54.0 °F 36.0 °F 51% 30.01 in 10.0 mi Calm Calm - N/A   Clear
1:57 AM 50.0 °F 35.1 °F 57% 30.01 in 10.0 mi SSE 3.5 mph - N/A   Clear
2:57 AM 50.0 °F 34.0 °F 54% 30.00 in 10.0 mi Calm Calm - N/A   Clear
3:57 AM 50.0 °F 35.1 °F 57% 30.00 in 10.0 mi Calm Calm - N/A   Clear
4:57 AM 52.0 °F 35.1 °F 53% 29.97 in 10.0 mi ESE 3.5 mph - N/A   Clear
5:57 AM 52.0 °F 37.0 °F 57% 29.99 in 10.0 mi Calm Calm - N/A   Clear
6:57 AM 52.0 °F 37.0 °F 57% 30.02 in 10.0 mi North 3.5 mph - N/A   Mostly Cloudy
7:57 AM 53.1 °F 35.1 °F 50% 30.00 in 10.0 mi ENE 5.8 mph - N/A   Mostly Cloudy
8:57 AM 55.0 °F 34.0 °F 45% 30.01 in 10.0 mi East 3.5 mph - N/A   Mostly Cloudy
9:57 AM 55.9 °F 36.0 °F 47% 30.04 in 10.0 mi NNE 4.6 mph - N/A   Overcast
10:57 AM 60.1 °F 37.0 °F 42% 30.02 in 10.0 mi ESE 5.8 mph - N/A   Mostly Cloudy
11:57 AM 63.0 °F 39.0 °F 41% 30.01 in 10.0 mi Variable 3.5 mph - N/A   Mostly Cloudy
12:35 PM 66.0 °F 35.1 °F 32% 29.99 in 10.0 mi SSW 9.2 mph - N/A   Overcast
12:57 PM 66.9 °F 35.1 °F 31% 29.98 in 10.0 mi SSW 6.9 mph - N/A   Mostly Cloudy
1:57 PM 69.1 °F 33.1 °F 26% 29.94 in 10.0 mi SSW 10.4 mph - N/A   Scattered Clouds
2:57 PM 70.0 °F 32.0 °F 25% 29.91 in 10.0 mi SSW 10.4 mph - N/A   Scattered Clouds
3:57 PM 72.0 °F 30.9 °F 22% 29.89 in 10.0 mi SW 10.4 mph - N/A   Scattered Clouds
4:57 PM 70.0 °F 33.1 °F 26% 29.90 in 10.0 mi West 11.5 mph - N/A   Mostly Cloudy
5:57 PM 68.0 °F 36.0 °F 31% 29.91 in 10.0 mi West 4.6 mph - N/A   Mostly Cloudy
6:57 PM 64.9 °F 37.9 °F 37% 29.92 in 10.0 mi West 6.9 mph - N/A   Mostly Cloudy
7:57 PM 62.1 °F 39.0 °F 43% 29.94 in 10.0 mi West 9.2 mph - N/A   Mostly Cloudy
8:57 PM 61.0 °F 39.0 °F 44% 29.94 in 10.0 mi WSW 8.1 mph - N/A   Scattered Clouds
9:57 PM 59.0 °F 37.9 °F 46% 29.95 in 10.0 mi WSW 4.6 mph - N/A   Clear
10:57 PM 57.9 °F 39.9 °F 51% 29.96 in 10.0 mi ESE 4.6 mph - N/A   Clear
11:57 PM 55.9 °F 41.0 °F 57% 29.96 in 10.0 mi Calm Calm - N/A   Clear